Lid_Strength_Index
0 0 0 0 0 0 0 1 3 5 4 2 2 -0 -1 -1 -2 -2 -1 -0 1 1 2 2 2 1 -0 -0 -1 -1 -1 -1 -1 -1 -1 -1 -2 -2
0 0 0 0 0 0 0 1 1 2 4 2 1 0 -1 -0 -2 -2 -1 -1 1 1 2 3 3 2 1 1 1 1 1 -0 -0 -1 -1 -1 -1 -1
0 0 1 0 1 0 0 1 1 1 3 2 1 0 0 0 -0 -1 -1 -1 -1 2 3 3 4 3 3 3 3 4 3 3 2 1 0 -0 -1 -1
1 1 1 0 1 0 1 1 1 1 2 3 2 1 1 0 0 0 -0 -0 -0 0 3 4 4 4 4 5 5 5 5 5 5 4 3 2 1 1
1 1 1 1 1 1 1 1 1 1 1 2 2 1 1 0 1 0 0 -0 -0 1 2 3 4 5 5 6 6 7 7 7 7 7 6 5 3 2
0 0 0 1 1 1 1 1 1 1 1 2 2 2 1 1 1 2 2 1 1 -0 1 1 2 4 6 7 8 8 9 9 9 8 8 7 6 4
0 0 0 0 1 1 1 1 1 2 2 2 3 2 2 2 2 1 2 1 1 0 1 0 0 -0 0 4 5 6 7 8 9 9 9 9 8 6
1 1 0 1 1 3 4 4 2 1 2 2 2 3 3 2 1 2 2 3 4 0 1 1 0 1 0 -0 2 5 7 8 9 9 9 10 9 7
1 1 1 0 1 0 2 4 4 4 3 1 2 2 2 1 1 2 2 2 3 1 1 2 0 1 0 0 5 4 5 6 7 7 8 9 9 9
1 1 1 1 0 0 1 1 1 0 0 1 1 1 0 0 0 1 1 1 1 1 0 3 1 2 0 -0 3 4 5 6 7 8 9 9 10 10
0 0 0 1 2 4 1 1 1 1 3 5 5 5 4 5 3 1 2 2 3 2 1 2 2 2 1 1 0 3 4 5 7 8 9 9 11 11
1 1 4 1 4 8 1 1 2 2 1 1 0 1 6 3 6 4 2 3 3 3 1 2 2 2 3 1 0 0 -0 4 4 7 8 10 11 8
1 1 1 6 8 8 7 1 2 1 1 1 1 1 0 0 0 -0 -0 1 2 3 1 1 2 2 2 3 1 0 0 0 -0 1 3 6 10 8
1 1 1 6 8 8 7 6 7 7 1 1 2 2 1 1 1 0 -0 -0 -0 1 -0 -0 2 2 3 3 3 1 1 -0 1 1 1 4 8 9
1 3 8 9 10 9 9 7 8 2 1 2 2 2 1 0 -0 0 0 -0 -0 -0 -0 -0 1 1 2 3 3 2 2 2 2 3 3 4 6 7
4 2 4 3 7 4 4 8 3 1 1 2 2 1 1 1 1 1 1 1 1 1 -0 -0 -0 1 2 2 2 3 2 3 3 4 5 6 5 5
3 1 1 2 2 2 1 1 1 1 1 1 1 2 1 1 1 1 1 1 2 2 2 1 -0 2 4 2 3 4 3 3 4 5 6 6 6 6
3 2 2 2 2 2 2 2 1 2 1 1 1 1 2 2 2 1 1 2 3 2 2 2 1 2 4 6 6 4 3 3 4 4 5 6 7 7
2 2 2 2 2 2 2 2 2 1 1 1 2 2 2 2 3 2 2 2 2 2 2 1 2 3 4 5 6 8 4 3 4 5 4 5 6 6
2 2 2 2 2 1 1 2 1 1 1 1 1 1 1 2 2 2 2 2 2 2 2 2 2 2 3 4 4 6 10 3 4 5 6 6 6 6
2 2 2 1 1 1 1 1 1 1 1 1 1 1 1 2 2 2 2 5 4 2 3 3 1 2 1 1 3 3 5 9 6 3 5 6 7 7
1 2 1 1 1 1 1 1 1 3 3 2 2 2 2 2 2 2 2 2 2 2 2 1 1 1 1 2 3 3 4 5 7 7 7 6 6 8
2 3 3 3 3 2 1 1 1 2 1 3 3 3 2 2 2 1 2 2 2 2 2 2 2 1 2 2 3 3 3 4 5 6 6 7 7 7